SCP
0 0 0 0 0 0 0 0 0 0 0 0 0 0 0 0 0 0 0 0 0 0 0 0 -0 0 0 0 0 0 0 0 0 0 0 0 0 0 0 0 0 0 0 0 -0 0 0 0 0 0 0 0 0 0
0 0 0 0 0 0 0 0 0 0 0 0 0 0 0 0 0 0 0 0 0 0 0 0 -0 0 0 0 0 0 0 0 0 0 -0 0 0 0 -0 0 0 0 0 0 0 0 0 0 0 0 0 0 0 0
0 0 0 0 0 0 0 0 0 0 0 0 0 0 0 0 0 0 0 0 0 0 0 0 0 -0 0 0 0 0 0 0 0 0 0 0 0 0 0 -0 0 -0 -0 0 0 0 0 0 0 0 0 0 0 0
0 0 0 0 0 0 0 0 0 0 0 0 0 0 0 0 0 0 0 0 0 0 0 0 0 0 0 0 0 0 0 0 0 0 0 0 0 0 0 0 0 0 0 0 0 0 0 0 0 0 0 0 0 0
0 0 0 0 0 0 0 0 0 0 0 0 0 0 0 0 0 0 0 0 0 0 0 0 0 -0 0 0 0 0 0 0 -0 0 0 0 0 0 0 0 0 0 0 0 0 0 0 0 0 0 0 0 0 0
0 0 0 0 0 0 0 0 0 0 0 0 0 0 0 0 0 0 0 0 0 -0 0 0 0 0 0 0 0 0 0 0 0 0 0 0 0 0 -0 0 0 0 0 0 0 0 0 0 0 0 0 0 0 0
0 0 0 0 0 0 0 0 0 0 0 0 0 0 0 0 0 0 0 0 0 0 0 0 0 0 0 0 0 0 0 0 -0 0 0 0 0 0 0 0 0 0 0 0 0 0 0 0 0 0 0 -0 0 0
0 0 0 0 0 0 0 0 0 0 0 0 0 0 0 0 0 0 0 0 0 0 0 0 0 0 0 0 0 0 0 0 0 0 0 0 0 0 0 0 -0 0 0 0 0 -0 -0 0 0 0 0 0 0 0
0 0 0 0 0 0 0 0 0 0 0 0 0 0 0 0 0 0 0 0 0 0 0 0 -0 0 0 0 0 0 0 0 0 0 0 0 0 0 0 0 -0 -0 0 0 0 0 0 0 0 0 0 0 0 0
0 0 0 0 0 0 0 0 0 0 0 0 0 0 0 0 0 0 0 0 0 0 0 0 0 0 0 0 0 0 0 0 0 0 0 0 0 0 0 0 0 0 0 0 0 0 0 0 0 -0 -0 0 0 0
0 0 0 0 0 0 0 0 0 0 0 0 0 0 0 0 0 0 0 0 0 0 0 0 -0 -0 0 0 0 0 0 0 0 0 0 0 0 -0 -0 0 0 0 0 0 0 0 0 0 0 0 0 0 0 0
0 0 0 0 0 0 0 0 0 0 0 0 0 0 0 0 0 0 0 0 0 -0 0 0 0 0 0 0 0 0 0 0 0 0 0 0 0 0 0 0 0 0 -0 0 0 0 0 0 0 0 0 0 0 0
0 0 0 0 0 0 0 0 0 0 0 0 0 0 0 0 0 0 0 0 -0 0 0 0 0 0 0 0 -0 0 0 0 0 0 0 0 -0 0 0 -0 0 0 0 0 0 0 0 0 0 0 0 0 0 0
0 0 0 0 0 0 0 0 0 0 0 0 0 0 0 0 0 -0 -0 0 0 0 0 0 0 0 0 0 0 0 0 0 0 0 0 0 0 0 0 0 0 0 0 0 0 0 0 0 0 0 0 0 0 0
0 0 0 0 0 0 0 0 0 0 0 0 0 0 0 0 -0 0 0 0 0 0 0 0 0 0 0 0 0 0 0 0 0 0 0 0 0 0 0 0 0 0 0 0 0 0 0 0 0 0 0 0 0 0
0 0 0 0 0 0 0 0 0 0 0 0 0 0 0 0 0 0 0 0 0 0 0 0 0 0 0 0 0 0 0 0 0 0 0 0 0 0 0 0 0 0 0 0 0 0 0 0 0 0 0 0 0 0
0 0 0 0 0 0 0 0 0 0 0 0 0 0 0 0 0 0 0 0 0 0 -0 -0 0 0 0 0 0 0 0 0 0 0 0 0 0 0 0 0 0 0 0 0 0 0 0 0 0 0 0 0 0 0
0 0 0 0 0 0 0 0 0 0 0 0 0 0 0 0 0 0 0 0 0 -0 -0 0 0 0 0 0 0 0 0 0 0 0 0 0 0 0 0 0 0 0 0 0 0 0 0 0 0 0 0 0 0 0
0 0 0 0 0 0 0 0 0 0 0 0 0 0 0 0 0 0 0 0 0 0 0 0 0 0 0 0 0 0 0 0 0 0 0 0 0 0 0 0 0 0 0 0 0 0 0 0 0 0 0 0 0 0
0 0 0 0 0 0 0 0 0 0 0 0 0 0 0 0 0 0 -0 -0 0 0 0 0 0 0 0 0 0 0 0 0 0 0 0 0 0 0 0 0 0 0 0 0 0 0 0 0 0 0 0 0 0 0
0 0 0 0 0 0 0 0 0 0 0 0 0 0 0 0 0 -0 0 0 0 0 0 0 0 0 0 0 0 0 0 0 0 0 0 0 0 0 0 0 0 0 0 0 0 0 0 0 0 0 0 0 0 0
0 0 0 0 0 0 0 0 0 0 0 0 0 0 0 0 0 0 0 0 0 0 0 0 0 0 0 0 0 0 0 0 0 0 0 0 0 0 0 0 0 0 0 0 0 0 0 0 0 0 0 0 0 0
0 0 0 0 0 0 0 0 0 0 0 0 0 0 0 0 0 0 0 0 0 0 0 0 0 0 0 0 0 0 0 0 0 0 0 0 0 0 0 0 0 0 0 0 0 0 0 0 0 0 0 0 0 0
0 0 0 0 0 0 0 0 0 0 0 0 0 0 0 0 0 0 0 0 0 0 0 0 0 0 0 0 0 0 0 0 0 0 0 0 0 0 0 0 0 0 0 0 0 0 0 0 0 0 0 0 0 0
0 0 0 0 0 0 0 0 0 0 0 0 0 0 0 0 0 0 0 0 0 0 0 0 0 0 0 0 0 0 0 0 0 0 0 0 0 0 0 0 0 0 0 0 0 0 0 0 0 0 0 0 0 0
0 0 0 0 0 0 0 0 0 0 0 0 0 0 0 0 0 0 0 0 0 0 0 0 0 0 0 0 0 0 0 0 0 0 0 0 0 0 0 0 0 0 0 0 0 0 0 0 0 0 0 0 0 0
0 0 0 0 0 0 0 0 0 0 0 0 0 0 0 0 0 0 0 0 0 0 0 0 0 0 0 0 0 0 0 0 0 0 0 0 0 0 0 0 0 0 0 0 0 0 0 0 0 0 0 0 0 0
0 0 0 0 0 0 -0 -0 -0 -0 0 0 0 0 0 0 0 0 0 0 0 0 0 0 0 0 0 0 0 0 0 0 0 0 0 0 0 0 0 0 0 0 0 0 0 0 0 0 0 0 0 0 0 0
0 0 0 -0 0 -0 -0 -0 -0 0 0 0 0 0 0 0 0 0 0 0 0 0 0 0 0 0 0 0 0 0 0 0 0 0 0 0 0 0 0 0 0 0 0 0 0 0 0 0 0 0 0 0 0 0
0 0 0 -0 0 0 0 -0 -0 0 0 0 0 0 0 0 0 0 0 0 0 0 0 0 0 0 0 0 0 0 0 0 0 0 0 0 0 0 0 0 0 0 0 0 0 0 0 0 0 0 0 0 0 0
0 0 0 0 -0 -0 -0 -0 -0 -0 -0 0 0 0 0 0 0 0 0 0 0 0 0 0 0 0 0 0 0 0 0 0 0 0 0 0 0 0 0 0 0 0 0 0 0 0 0 0 0 0 0 0 0 0
0 -0 -0 -0 -0 -0 -0 0 0 0 0 0 0 0 0 0 0 0 0 0 0 0 0 0 0 0 0 0 0 0 0 0 0 0 0 0 0 0 0 0 0 0 0 0 0 0 0 0 0 0 0 0 0 0
-0 -0 -0 -0 -0 -0 -0 0 0 0 0 0 0 0 0 0 0 0 0 0 0 0 0 0 0 0 0 0 0 0 0 0 0 0 0 0 0 0 0 0 0 0 0 0 0 0 0 0 0 0 0 0 0 0
Wind_Speed_500mb
51 46 44 43 40 37 35 31 28 27 26 26 28 31 33 30 29 32 23 23 15 23 31 17 30 24 23 17 14 32 22 10 9 9 7 12 9 15 8 19 11 8 6 9 4 6 8 18 4 9 9 4 1 7
52 46 45 43 41 38 35 31 29 28 26 26 28 31 33 29 27 31 26 9 15 22 22 23 17 18 13 13 13 23 28 13 11 12 19 2 10 12 19 3 7 10 2 10 13 4 14 15 21 12 7 6 12 11
52 47 45 43 41 37 35 32 30 28 27 27 28 31 33 29 26 31 34 24 24 26 41 62 20 19 13 7 8 11 14 20 13 9 16 17 14 7 5 7 12 3 16 7 4 9 16 10 10 7 7 8 13 11
49 46 45 44 40 37 35 33 30 29 28 28 29 31 33 30 28 32 37 22 15 19 22 11 8 27 9 9 6 6 14 18 23 20 19 15 4 9 9 10 11 19 18 2 13 17 8 11 9 11 13 10 10 12
46 43 44 43 39 37 36 33 30 29 28 29 30 31 32 30 29 34 39 29 23 13 14 13 24 26 18 18 13 9 13 20 27 26 13 7 8 2 18 20 15 22 14 9 7 10 12 16 6 9 11 13 14 14
43 44 42 41 39 38 36 32 30 29 28 30 31 32 31 28 26 27 13 12 18 18 14 15 15 29 29 25 19 15 15 20 29 14 13 22 9 6 12 5 14 19 20 12 11 7 12 6 7 6 11 17 18 21
43 44 43 41 39 38 35 31 30 28 29 31 32 32 30 29 28 21 12 2 10 19 12 14 30 41 25 22 21 27 20 18 46 5 2 7 12 9 9 15 45 33 15 9 9 6 8 12 23 22 24 27 27 32
44 45 44 41 39 38 34 31 28 28 29 31 32 30 30 30 32 40 36 19 15 15 17 9 19 21 24 22 21 10 13 38 32 6 1 3 11 3 9 21 66 19 10 13 20 21 16 19 22 28 36 39 42 41
45 45 43 41 40 38 33 29 27 27 28 30 27 27 29 29 15 17 23 15 19 20 17 18 20 7 12 29 9 8 16 16 15 9 7 8 7 3 15 10 34 23 15 13 15 23 31 33 32 33 35 38 39 41
46 46 44 42 41 36 31 28 26 25 25 23 20 8 12 20 22 7 9 7 11 15 21 28 38 17 15 12 5 6 17 5 11 9 10 17 13 36 23 12 15 15 17 20 24 26 28 30 32 32 29 33 35 37
47 47 44 41 38 34 30 25 23 20 17 13 11 11 5 16 14 10 14 16 24 14 35 43 39 26 24 12 4 6 6 9 16 6 9 9 7 9 12 17 13 14 15 16 18 25 30 45 50 45 47 56 61 66
47 43 40 39 35 32 27 24 23 19 11 11 14 4 4 10 13 12 9 14 12 16 10 19 31 26 7 3 10 17 10 3 2 2 4 5 7 8 18 25 10 12 19 34 19 23 30 26 30 46 42 46 38 62
39 36 36 34 33 29 27 24 20 21 20 15 8 10 14 14 2 12 11 15 14 20 14 18 12 7 11 7 11 4 5 5 23 1 7 7 25 15 6 4 18 21 27 24 38 39 35 48 48 55 55 50 48 48
33 31 31 31 30 29 24 21 20 21 14 11 15 7 9 9 9 17 21 13 7 23 7 6 13 11 6 2 7 4 7 8 1 7 5 3 31 25 27 25 33 35 35 39 42 43 44 46 43 35 42 46 45 45
26 25 29 34 28 25 24 24 28 21 9 13 11 8 13 30 26 12 11 12 4 9 10 5 18 18 4 4 4 5 1 1 8 7 5 17 32 29 30 31 35 36 37 38 41 39 37 37 39 42 46 46 44 51
23 24 28 22 26 29 31 33 26 21 9 11 12 12 26 33 5 5 16 19 7 7 4 5 5 2 4 4 10 10 8 10 8 11 31 28 33 30 31 35 34 30 34 35 37 36 36 41 40 39 42 48 53 52
23 21 16 25 32 38 31 23 19 14 11 9 11 9 18 23 12 22 36 27 5 11 10 6 3 8 15 9 8 7 8 6 26 39 39 33 34 39 38 42 42 40 39 37 33 35 37 38 41 43 48 49 50 48
23 19 24 40 35 30 31 21 13 13 16 20 12 12 39 24 20 16 14 10 6 15 14 9 17 14 11 8 12 18 35 46 47 44 41 40 41 41 40 37 33 32 33 33 36 37 42 45 42 41 44 50 55 54
31 32 36 34 35 30 16 16 13 10 22 24 11 13 30 14 22 23 13 4 9 30 11 17 15 9 8 17 33 48 55 47 43 37 36 37 36 37 39 34 31 33 31 36 39 41 42 37 38 48 50 54 53 54
28 30 31 39 44 11 9 12 16 9 16 16 16 20 25 50 51 48 46 41 38 20 22 12 11 13 23 29 33 33 33 28 26 26 30 36 44 35 33 33 32 32 33 34 35 40 42 40 43 46 49 51 54 55
31 31 40 44 16 6 5 7 13 9 13 14 28 40 36 48 43 39 33 31 34 18 16 17 24 25 26 27 29 27 29 29 30 30 29 27 29 28 28 27 30 34 35 37 42 41 41 42 44 47 47 49 50 50
23 43 44 20 10 3 2 6 6 11 4 13 23 35 28 29 21 18 24 31 15 20 20 26 22 19 24 30 29 27 25 23 29 26 28 24 28 29 32 34 36 36 36 37 40 40 40 41 43 46 46 50 50 52
46 43 18 13 5 7 7 12 12 13 8 18 31 21 17 13 17 18 16 14 11 19 17 18 19 20 21 17 18 26 27 25 23 24 27 27 26 29 32 33 34 35 34 38 36 38 40 42 45 48 50 52 54 56
31 5 6 15 12 6 15 11 13 9 14 20 13 10 15 17 20 15 8 9 10 8 12 12 18 11 14 23 23 26 27 26 24 23 26 31 31 32 31 31 32 32 32 36 35 39 42 45 48 49 52 53 55 58
6 6 10 5 8 14 13 10 11 10 11 7 10 2 12 16 8 8 6 9 11 12 13 14 17 21 18 19 18 21 25 27 28 27 29 32 31 30 30 31 31 32 34 41 39 43 46 48 49 52 55 56 59 61
8 3 4 17 12 12 13 12 12 15 12 7 7 14 12 11 9 10 7 15 16 13 12 12 13 14 15 18 20 22 24 26 27 27 29 31 30 31 32 35 37 38 40 41 43 46 50 52 55 58 60 59 62 64
5 9 11 8 15 8 9 11 13 6 6 7 12 14 8 10 9 8 18 21 17 11 9 12 14 14 16 17 17 19 22 23 25 27 28 27 26 27 30 35 38 40 46 41 43 47 51 55 57 60 61 61 63 65
7 18 18 18 30 39 37 26 16 22 15 20 11 13 8 9 6 13 23 22 14 19 22 19 13 12 14 16 17 20 23 23 25 27 28 23 25 27 32 35 37 45 44 40 44 48 50 53 58 60 61 65 66 66
14 43 46 34 20 23 30 19 20 18 24 14 8 8 8 10 29 41 30 22 25 14 12 8 10 13 14 16 17 21 23 24 30 33 35 35 38 38 39 41 43 45 42 45 48 50 53 54 58 61 61 63 66 69
29 25 18 23 15 13 23 23 28 24 28 34 42 58 59 51 40 32 28 22 13 10 11 11 12 15 18 21 22 23 22 25 26 29 33 37 40 41 44 46 49 44 46 48 51 52 55 56 58 60 62 64 67 70
19 22 19 20 18 35 46 51 56 62 65 68 53 60 49 36 24 17 12 9 7 8 13 15 15 17 20 22 24 26 27 27 27 28 30 35 35 40 47 47 42 44 46 49 51 55 58 61 60 61 65 68 70 71
24 25 27 25 41 43 31 31 32 40 37 39 36 31 26 20 12 9 10 7 7 10 15 17 17 19 20 21 22 23 28 28 30 31 37 35 38 46 45 40 41 44 48 49 54 55 56 60 62 64 69 71 71 73
51 63 65 50 36 19 20 20 12 11 10 8 9 10 10 8 7 4 7 7 10 10 13 16 16 17 20 22 24 25 27 29 32 40 40 42 50 51 46 42 44 46 47 51 54 56 59 59 61 65 67 66 68 70
Wind_Direction_500mb
272 267 264 264 258 252 254 254 258 266 280 292 303 313 321 321 320 319 289 285 277 310 325 313 309 316 325 328 339 353 327 57 60 33 150 197 213 218 206 155 226 153 229 347 289 353 6 344 61 28 95 161 302 323
267 264 260 260 253 249 248 249 253 261 274 286 297 307 315 315 312 313 306 313 303 274 282 290 307 281 298 332 330 324 307 317 166 310 316 151 204 192 278 110 27 179 209 306 15 101 172 63 73 84 49 339 331 332
264 261 256 253 247 244 243 245 249 257 270 282 292 302 310 308 301 302 295 304 313 274 269 239 274 266 229 258 312 333 345 350 328 333 306 298 64 336 21 177 265 183 254 245 230 139 105 88 102 64 10 347 324 325
261 257 251 245 242 239 238 242 245 254 266 278 288 297 304 302 294 293 293 274 286 287 280 202 275 217 232 233 253 304 310 316 295 282 277 286 89 153 220 222 236 199 197 293 43 52 37 96 55 16 357 354 336 322
256 248 242 238 236 234 235 238 241 253 264 275 285 293 300 297 291 291 286 264 254 251 311 294 259 250 218 216 223 260 297 305 305 299 281 288 98 252 317 265 28 35 25 32 65 71 28 71 12 360 356 352 339 323
249 234 234 232 231 230 232 234 240 252 263 273 283 291 293 291 287 308 301 273 240 203 272 276 268 186 207 221 232 245 275 271 296 322 330 3 77 332 288 78 58 61 71 30 78 104 59 350 321 336 348 325 310 299
233 227 228 227 226 227 228 231 239 252 262 272 280 288 285 281 270 260 265 125 227 183 240 255 263 217 202 222 250 254 253 306 294 185 56 293 344 315 295 345 33 358 78 57 54 27 338 14 352 334 311 308 304 310
222 221 223 223 223 224 225 229 239 251 261 272 282 281 280 270 267 267 239 262 273 228 259 256 262 225 186 227 226 133 348 276 264 85 268 244 263 212 40 23 303 310 46 34 350 327 311 329 334 350 349 341 330 318
220 218 220 220 220 221 221 227 239 251 264 277 279 283 279 261 252 253 232 243 244 221 298 242 256 285 188 250 290 38 220 261 354 25 219 183 234 50 193 127 261 280 32 16 358 3 5 357 346 347 337 329 323 324
214 214 216 216 217 216 218 227 239 254 269 273 279 271 235 212 219 234 220 202 205 227 231 272 290 292 224 200 189 68 9 335 238 256 202 252 72 31 320 300 48 48 34 21 8 357 351 342 330 321 320 324 321 321
209 210 211 213 212 211 217 225 241 259 255 253 209 243 342 180 183 211 218 206 201 220 216 229 245 267 287 311 69 187 207 217 243 97 346 47 93 147 170 109 74 42 21 2 351 342 346 360 3 3 349 342 344 340
204 206 208 208 207 210 214 224 234 236 217 235 277 258 229 193 213 218 237 212 228 224 248 221 212 207 203 15 243 184 256 208 151 33 305 60 31 57 18 352 37 1 346 345 7 360 343 331 341 354 342 324 320 332
202 206 205 204 205 209 215 223 237 220 229 255 260 222 194 207 330 226 227 229 204 227 147 204 215 210 163 244 284 286 303 5 347 13 61 26 287 216 152 327 4 5 11 11 7 11 349 349 354 356 359 356 358 7
212 207 204 207 209 210 214 222 215 202 196 227 206 293 205 198 203 235 238 267 40 149 139 156 109 231 118 215 252 24 178 256 58 39 81 187 32 25 31 25 29 22 17 11 5 3 360 1 2 346 348 357 356 1
211 214 218 210 205 209 212 207 190 193 195 240 238 173 226 226 237 192 80 287 164 74 100 234 171 211 246 255 244 70 272 155 36 77 106 9 53 39 33 26 23 18 10 5 8 10 7 15 14 8 8 5 360 1
213 227 221 201 208 207 192 181 188 185 244 237 244 237 220 228 227 271 211 109 119 116 91 294 281 323 253 239 49 35 6 20 131 89 71 56 51 41 37 36 36 30 23 22 24 22 16 11 4 357 352 352 349 352
216 215 220 195 173 164 168 167 165 212 238 224 248 218 243 238 136 64 63 74 74 287 235 233 211 71 29 30 67 62 326 65 94 80 74 66 60 52 54 46 30 24 18 14 12 8 2 354 350 350 352 352 355 355
181 201 174 159 164 171 175 175 205 217 217 234 240 228 62 342 120 100 68 34 284 246 272 40 62 45 65 40 17 43 69 79 78 74 66 58 50 40 31 29 18 13 11 2 1 358 354 0 6 5 357 352 347 344
182 179 170 172 172 150 174 194 220 208 219 209 299 148 113 106 80 70 66 85 49 36 45 59 54 47 55 360 28 28 40 58 70 64 54 44 30 21 14 11 6 5 5 0 3 8 4 359 3 355 349 348 347 348
175 169 173 170 170 169 191 146 130 281 244 167 181 116 105 88 80 68 54 43 50 54 49 45 54 46 58 42 44 44 42 39 40 43 30 24 24 16 5 4 1 1 3 3 1 358 356 355 355 353 352 351 351 348
165 170 167 171 185 219 53 239 214 341 123 145 137 100 88 86 78 69 52 34 53 36 57 94 95 75 67 57 51 44 37 38 41 38 27 9 6 360 360 0 357 357 1 359 357 355 357 357 352 350 351 351 349 346
164 158 164 177 196 202 178 216 205 159 132 162 157 128 119 113 92 63 81 52 64 31 54 63 72 72 58 51 44 40 34 25 28 25 16 4 358 358 356 353 354 355 354 357 353 351 350 350 349 348 346 344 343 342
149 154 149 119 83 260 221 200 146 199 172 179 108 116 114 84 105 100 77 61 75 48 58 63 69 72 65 50 36 29 28 22 15 10 8 3 357 355 354 354 355 354 354 351 349 347 346 345 343 343 342 342 342 342
143 133 173 153 201 153 158 199 191 202 182 196 128 126 144 132 111 74 79 79 83 76 75 82 81 86 39 33 33 23 21 14 7 4 1 358 353 351 351 352 352 352 354 347 344 343 342 341 341 341 341 338 338 338
120 130 186 246 162 164 183 193 198 190 190 154 55 158 91 72 82 74 87 107 100 86 68 59 52 50 43 28 25 20 12 9 3 358 356 355 349 348 349 349 349 348 349 346 340 338 338 337 337 337 336 336 335 334
72 127 183 175 192 208 181 185 185 189 191 102 105 87 82 75 75 78 86 134 131 110 89 67 54 43 31 21 12 7 2 359 358 358 355 354 352 351 349 347 345 342 342 340 336 335 335 335 334 334 333 332 332 331
180 169 205 223 200 187 169 161 189 192 77 47 74 83 77 72 81 85 129 144 128 104 78 80 75 26 8 3 360 356 354 358 360 357 349 350 349 350 348 344 341 337 336 335 333 333 332 331 331 331 329 329 330 330
192 175 160 78 61 39 37 49 35 19 40 12 67 39 53 55 90 134 154 139 116 90 67 57 29 1 355 355 352 351 350 350 352 352 352 352 351 347 343 339 335 334 334 333 333 331 331 331 329 328 328 328 329 330
111 98 82 56 64 51 32 37 24 26 345 348 79 77 85 81 134 134 133 115 91 73 37 39 4 359 357 357 354 353 353 350 350 349 349 348 345 343 339 337 335 334 336 333 332 333 333 332 330 330 329 329 329 330
66 84 89 45 51 56 32 43 40 38 54 98 102 111 109 115 119 119 104 81 70 58 33 19 8 2 0 357 352 351 353 350 352 348 343 341 336 333 334 334 334 338 336 333 332 331 332 332 330 331 331 332 332 330
101 76 69 88 92 102 95 84 80 82 90 98 109 109 112 113 102 83 79 71 61 29 25 19 10 1 358 354 351 345 341 344 343 339 337 335 333 333 334 334 337 334 332 332 331 331 332 333 333 333 333 331 332 332
84 110 111 118 130 133 113 82 77 93 95 97 101 105 111 101 92 103 66 60 48 25 14 11 3 353 347 346 342 338 335 337 334 329 333 332 333 336 337 338 335 334 333 332 332 333 333 333 332 332 332 332 333 332
100 109 115 120 144 143 130 115 104 113 87 76 76 86 85 83 97 86 71 33 20 6 0 355 348 342 342 342 339 337 336 335 331 333 331 338 342 343 343 339 335 333 335 334 333 333 333 333 332 333 334 334 334 334
Wind_Speed_850mb
51 46 44 43 40 37 35 31 28 27 26 26 28 31 33 30 29 32 23 23 15 23 31 17 30 24 23 17 14 32 22 10 9 9 7 12 9 15 8 19 11 8 6 9 4 6 8 18 4 9 9 4 1 7
52 46 45 43 41 38 35 31 29 28 26 26 28 31 33 29 27 31 26 9 15 22 22 23 17 18 13 13 13 23 28 13 11 12 19 2 10 12 19 3 7 10 2 10 13 4 14 15 21 12 7 6 12 11
52 47 45 43 41 37 35 32 30 28 27 27 28 31 33 29 26 31 34 24 24 26 41 62 20 19 13 7 8 11 14 20 13 9 16 17 14 7 5 7 12 3 16 7 4 9 16 10 10 7 7 8 13 11
49 46 45 44 40 37 35 33 30 29 28 28 29 31 33 30 28 32 37 22 15 19 22 11 8 27 9 9 6 6 14 18 23 20 19 15 4 9 9 10 11 19 18 2 13 17 8 11 9 11 13 10 10 12
46 43 44 43 39 37 36 33 30 29 28 29 30 31 32 30 29 34 39 29 23 13 14 13 24 26 18 18 13 9 13 20 27 26 13 7 8 2 18 20 15 22 14 9 7 10 12 16 6 9 11 13 14 14
43 44 42 41 39 38 36 32 30 29 28 30 31 32 31 28 26 27 13 12 18 18 14 15 15 29 29 25 19 15 15 20 29 14 13 22 9 6 12 5 14 19 20 12 11 7 12 6 7 6 11 17 18 21
43 44 43 41 39 38 35 31 30 28 29 31 32 32 30 29 28 21 12 2 10 19 12 14 30 41 25 22 21 27 20 18 46 5 2 7 12 9 9 15 45 33 15 9 9 6 8 12 23 22 24 27 27 32
44 45 44 41 39 38 34 31 28 28 29 31 32 30 30 30 32 40 36 19 15 15 17 9 19 21 24 22 21 10 13 38 32 6 1 3 11 3 9 21 66 19 10 13 20 21 16 19 22 28 36 39 42 41
45 45 43 41 40 38 33 29 27 27 28 30 27 27 29 29 15 17 23 15 19 20 17 18 20 7 12 29 9 8 16 16 15 9 7 8 7 3 15 10 34 23 15 13 15 23 31 33 32 33 35 38 39 41
46 46 44 42 41 36 31 28 26 25 25 23 20 8 12 20 22 7 9 7 11 15 21 28 38 17 15 12 5 6 17 5 11 9 10 17 13 36 23 12 15 15 17 20 24 26 28 30 32 32 29 33 35 37
47 47 44 41 38 34 30 25 23 20 17 13 11 11 5 16 14 10 14 16 24 14 35 43 39 26 24 12 4 6 6 9 16 6 9 9 7 9 12 17 13 14 15 16 18 25 30 45 50 45 47 56 61 66
47 43 40 39 35 32 27 24 23 19 11 11 14 4 4 10 13 12 9 14 12 16 10 19 31 26 7 3 10 17 10 3 2 2 4 5 7 8 18 25 10 12 19 34 19 23 30 26 30 46 42 46 38 62
39 36 36 34 33 29 27 24 20 21 20 15 8 10 14 14 2 12 11 15 14 20 14 18 12 7 11 7 11 4 5 5 23 1 7 7 25 15 6 4 18 21 27 24 38 39 35 48 48 55 55 50 48 48
33 31 31 31 30 29 24 21 20 21 14 11 15 7 9 9 9 17 21 13 7 23 7 6 13 11 6 2 7 4 7 8 1 7 5 3 31 25 27 25 33 35 35 39 42 43 44 46 43 35 42 46 45 45
26 25 29 34 28 25 24 24 28 21 9 13 11 8 13 30 26 12 11 12 4 9 10 5 18 18 4 4 4 5 1 1 8 7 5 17 32 29 30 31 35 36 37 38 41 39 37 37 39 42 46 46 44 51
23 24 28 22 26 29 31 33 26 21 9 11 12 12 26 33 5 5 16 19 7 7 4 5 5 2 4 4 10 10 8 10 8 11 31 28 33 30 31 35 34 30 34 35 37 36 36 41 40 39 42 48 53 52
23 21 16 25 32 38 31 23 19 14 11 9 11 9 18 23 12 22 36 27 5 11 10 6 3 8 15 9 8 7 8 6 26 39 39 33 34 39 38 42 42 40 39 37 33 35 37 38 41 43 48 49 50 48
23 19 24 40 35 30 31 21 13 13 16 20 12 12 39 24 20 16 14 10 6 15 14 9 17 14 11 8 12 18 35 46 47 44 41 40 41 41 40 37 33 32 33 33 36 37 42 45 42 41 44 50 55 54
31 32 36 34 35 30 16 16 13 10 22 24 11 13 30 14 22 23 13 4 9 30 11 17 15 9 8 17 33 48 55 47 43 37 36 37 36 37 39 34 31 33 31 36 39 41 42 37 38 48 50 54 53 54
28 30 31 39 44 11 9 12 16 9 16 16 16 20 25 50 51 48 46 41 38 20 22 12 11 13 23 29 33 33 33 28 26 26 30 36 44 35 33 33 32 32 33 34 35 40 42 40 43 46 49 51 54 55
31 31 40 44 16 6 5 7 13 9 13 14 28 40 36 48 43 39 33 31 34 18 16 17 24 25 26 27 29 27 29 29 30 30 29 27 29 28 28 27 30 34 35 37 42 41 41 42 44 47 47 49 50 50
23 43 44 20 10 3 2 6 6 11 4 13 23 35 28 29 21 18 24 31 15 20 20 26 22 19 24 30 29 27 25 23 29 26 28 24 28 29 32 34 36 36 36 37 40 40 40 41 43 46 46 50 50 52
46 43 18 13 5 7 7 12 12 13 8 18 31 21 17 13 17 18 16 14 11 19 17 18 19 20 21 17 18 26 27 25 23 24 27 27 26 29 32 33 34 35 34 38 36 38 40 42 45 48 50 52 54 56
31 5 6 15 12 6 15 11 13 9 14 20 13 10 15 17 20 15 8 9 10 8 12 12 18 11 14 23 23 26 27 26 24 23 26 31 31 32 31 31 32 32 32 36 35 39 42 45 48 49 52 53 55 58
6 6 10 5 8 14 13 10 11 10 11 7 10 2 12 16 8 8 6 9 11 12 13 14 17 21 18 19 18 21 25 27 28 27 29 32 31 30 30 31 31 32 34 41 39 43 46 48 49 52 55 56 59 61
8 3 4 17 12 12 13 12 12 15 12 7 7 14 12 11 9 10 7 15 16 13 12 12 13 14 15 18 20 22 24 26 27 27 29 31 30 31 32 35 37 38 40 41 43 46 50 52 55 58 60 59 62 64
5 9 11 8 15 8 9 11 13 6 6 7 12 14 8 10 9 8 18 21 17 11 9 12 14 14 16 17 17 19 22 23 25 27 28 27 26 27 30 35 38 40 46 41 43 47 51 55 57 60 61 61 63 65
7 18 18 18 30 39 37 26 16 22 15 20 11 13 8 9 6 13 23 22 14 19 22 19 13 12 14 16 17 20 23 23 25 27 28 23 25 27 32 35 37 45 44 40 44 48 50 53 58 60 61 65 66 66
14 43 46 34 20 23 30 19 20 18 24 14 8 8 8 10 29 41 30 22 25 14 12 8 10 13 14 16 17 21 23 24 30 33 35 35 38 38 39 41 43 45 42 45 48 50 53 54 58 61 61 63 66 69
29 25 18 23 15 13 23 23 28 24 28 34 42 58 59 51 40 32 28 22 13 10 11 11 12 15 18 21 22 23 22 25 26 29 33 37 40 41 44 46 49 44 46 48 51 52 55 56 58 60 62 64 67 70
19 22 19 20 18 35 46 51 56 62 65 68 53 60 49 36 24 17 12 9 7 8 13 15 15 17 20 22 24 26 27 27 27 28 30 35 35 40 47 47 42 44 46 49 51 55 58 61 60 61 65 68 70 71
24 25 27 25 41 43 31 31 32 40 37 39 36 31 26 20 12 9 10 7 7 10 15 17 17 19 20 21 22 23 28 28 30 31 37 35 38 46 45 40 41 44 48 49 54 55 56 60 62 64 69 71 71 73
51 63 65 50 36 19 20 20 12 11 10 8 9 10 10 8 7 4 7 7 10 10 13 16 16 17 20 22 24 25 27 29 32 40 40 42 50 51 46 42 44 46 47 51 54 56 59 59 61 65 67 66 68 70
Wind_Direction_850mb
272 267 264 264 258 252 254 254 258 266 280 292 303 313 321 321 320 319 289 285 277 310 325 313 309 316 325 328 339 353 327 57 60 33 150 197 213 218 206 155 226 153 229 347 289 353 6 344 61 28 95 161 302 323
267 264 260 260 253 249 248 249 253 261 274 286 297 307 315 315 312 313 306 313 303 274 282 290 307 281 298 332 330 324 307 317 166 310 316 151 204 192 278 110 27 179 209 306 15 101 172 63 73 84 49 339 331 332
264 261 256 253 247 244 243 245 249 257 270 282 292 302 310 308 301 302 295 304 313 274 269 239 274 266 229 258 312 333 345 350 328 333 306 298 64 336 21 177 265 183 254 245 230 139 105 88 102 64 10 347 324 325
261 257 251 245 242 239 238 242 245 254 266 278 288 297 304 302 294 293 293 274 286 287 280 202 275 217 232 233 253 304 310 316 295 282 277 286 89 153 220 222 236 199 197 293 43 52 37 96 55 16 357 354 336 322
256 248 242 238 236 234 235 238 241 253 264 275 285 293 300 297 291 291 286 264 254 251 311 294 259 250 218 216 223 260 297 305 305 299 281 288 98 252 317 265 28 35 25 32 65 71 28 71 12 360 356 352 339 323
249 234 234 232 231 230 232 234 240 252 263 273 283 291 293 291 287 308 301 273 240 203 272 276 268 186 207 221 232 245 275 271 296 322 330 3 77 332 288 78 58 61 71 30 78 104 59 350 321 336 348 325 310 299
233 227 228 227 226 227 228 231 239 252 262 272 280 288 285 281 270 260 265 125 227 183 240 255 263 217 202 222 250 254 253 306 294 185 56 293 344 315 295 345 33 358 78 57 54 27 338 14 352 334 311 308 304 310
222 221 223 223 223 224 225 229 239 251 261 272 282 281 280 270 267 267 239 262 273 228 259 256 262 225 186 227 226 133 348 276 264 85 268 244 263 212 40 23 303 310 46 34 350 327 311 329 334 350 349 341 330 318
220 218 220 220 220 221 221 227 239 251 264 277 279 283 279 261 252 253 232 243 244 221 298 242 256 285 188 250 290 38 220 261 354 25 219 183 234 50 193 127 261 280 32 16 358 3 5 357 346 347 337 329 323 324
214 214 216 216 217 216 218 227 239 254 269 273 279 271 235 212 219 234 220 202 205 227 231 272 290 292 224 200 189 68 9 335 238 256 202 252 72 31 320 300 48 48 34 21 8 357 351 342 330 321 320 324 321 321
209 210 211 213 212 211 217 225 241 259 255 253 209 243 342 180 183 211 218 206 201 220 216 229 245 267 287 311 69 187 207 217 243 97 346 47 93 147 170 109 74 42 21 2 351 342 346 360 3 3 349 342 344 340
204 206 208 208 207 210 214 224 234 236 217 235 277 258 229 193 213 218 237 212 228 224 248 221 212 207 203 15 243 184 256 208 151 33 305 60 31 57 18 352 37 1 346 345 7 360 343 331 341 354 342 324 320 332
202 206 205 204 205 209 215 223 237 220 229 255 260 222 194 207 330 226 227 229 204 227 147 204 215 210 163 244 284 286 303 5 347 13 61 26 287 216 152 327 4 5 11 11 7 11 349 349 354 356 359 356 358 7
212 207 204 207 209 210 214 222 215 202 196 227 206 293 205 198 203 235 238 267 40 149 139 156 109 231 118 215 252 24 178 256 58 39 81 187 32 25 31 25 29 22 17 11 5 3 360 1 2 346 348 357 356 1
211 214 218 210 205 209 212 207 190 193 195 240 238 173 226 226 237 192 80 287 164 74 100 234 171 211 246 255 244 70 272 155 36 77 106 9 53 39 33 26 23 18 10 5 8 10 7 15 14 8 8 5 360 1
213 227 221 201 208 207 192 181 188 185 244 237 244 237 220 228 227 271 211 109 119 116 91 294 281 323 253 239 49 35 6 20 131 89 71 56 51 41 37 36 36 30 23 22 24 22 16 11 4 357 352 352 349 352
216 215 220 195 173 164 168 167 165 212 238 224 248 218 243 238 136 64 63 74 74 287 235 233 211 71 29 30 67 62 326 65 94 80 74 66 60 52 54 46 30 24 18 14 12 8 2 354 350 350 352 352 355 355
181 201 174 159 164 171 175 175 205 217 217 234 240 228 62 342 120 100 68 34 284 246 272 40 62 45 65 40 17 43 69 79 78 74 66 58 50 40 31 29 18 13 11 2 1 358 354 0 6 5 357 352 347 344
182 179 170 172 172 150 174 194 220 208 219 209 299 148 113 106 80 70 66 85 49 36 45 59 54 47 55 360 28 28 40 58 70 64 54 44 30 21 14 11 6 5 5 0 3 8 4 359 3 355 349 348 347 348
175 169 173 170 170 169 191 146 130 281 244 167 181 116 105 88 80 68 54 43 50 54 49 45 54 46 58 42 44 44 42 39 40 43 30 24 24 16 5 4 1 1 3 3 1 358 356 355 355 353 352 351 351 348
165 170 167 171 185 219 53 239 214 341 123 145 137 100 88 86 78 69 52 34 53 36 57 94 95 75 67 57 51 44 37 38 41 38 27 9 6 360 360 0 357 357 1 359 357 355 357 357 352 350 351 351 349 346
164 158 164 177 196 202 178 216 205 159 132 162 157 128 119 113 92 63 81 52 64 31 54 63 72 72 58 51 44 40 34 25 28 25 16 4 358 358 356 353 354 355 354 357 353 351 350 350 349 348 346 344 343 342
149 154 149 119 83 260 221 200 146 199 172 179 108 116 114 84 105 100 77 61 75 48 58 63 69 72 65 50 36 29 28 22 15 10 8 3 357 355 354 354 355 354 354 351 349 347 346 345 343 343 342 342 342 342
143 133 173 153 201 153 158 199 191 202 182 196 128 126 144 132 111 74 79 79 83 76 75 82 81 86 39 33 33 23 21 14 7 4 1 358 353 351 351 352 352 352 354 347 344 343 342 341 341 341 341 338 338 338
120 130 186 246 162 164 183 193 198 190 190 154 55 158 91 72 82 74 87 107 100 86 68 59 52 50 43 28 25 20 12 9 3 358 356 355 349 348 349 349 349 348 349 346 340 338 338 337 337 337 336 336 335 334
72 127 183 175 192 208 181 185 185 189 191 102 105 87 82 75 75 78 86 134 131 110 89 67 54 43 31 21 12 7 2 359 358 358 355 354 352 351 349 347 345 342 342 340 336 335 335 335 334 334 333 332 332 331
180 169 205 223 200 187 169 161 189 192 77 47 74 83 77 72 81 85 129 144 128 104 78 80 75 26 8 3 360 356 354 358 360 357 349 350 349 350 348 344 341 337 336 335 333 333 332 331 331 331 329 329 330 330
192 175 160 78 61 39 37 49 35 19 40 12 67 39 53 55 90 134 154 139 116 90 67 57 29 1 355 355 352 351 350 350 352 352 352 352 351 347 343 339 335 334 334 333 333 331 331 331 329 328 328 328 329 330
111 98 82 56 64 51 32 37 24 26 345 348 79 77 85 81 134 134 133 115 91 73 37 39 4 359 357 357 354 353 353 350 350 349 349 348 345 343 339 337 335 334 336 333 332 333 333 332 330 330 329 329 329 330
66 84 89 45 51 56 32 43 40 38 54 98 102 111 109 115 119 119 104 81 70 58 33 19 8 2 0 357 352 351 353 350 352 348 343 341 336 333 334 334 334 338 336 333 332 331 332 332 330 331 331 332 332 330
101 76 69 88 92 102 95 84 80 82 90 98 109 109 112 113 102 83 79 71 61 29 25 19 10 1 358 354 351 345 341 344 343 339 337 335 333 333 334 334 337 334 332 332 331 331 332 333 333 333 333 331 332 332
84 110 111 118 130 133 113 82 77 93 95 97 101 105 111 101 92 103 66 60 48 25 14 11 3 353 347 346 342 338 335 337 334 329 333 332 333 336 337 338 335 334 333 332 332 333 333 333 332 332 332 332 333 332
100 109 115 120 144 143 130 115 104 113 87 76 76 86 85 83 97 86 71 33 20 6 0 355 348 342 342 342 339 337 336 335 331 333 331 338 342 343 343 339 335 333 335 334 333 333 333 333 332 333 334 334 334 334